Weather in Guarenas

Venezuela     10°28′12″N   66°37′16″W
temp.,
°C
wind,
m/s
gust,
m/s
humid.,
%
clouds,
%
prec.,
mm/h
press.,
hPa
HPBL,
m
9 may, sun
sun923:00+20sse129885 0.1 101791
02:00+20sse119896 0.6 101582
05:00+20s229890 1.1 101592
08:00+20ssw2296100 1.9 101789
11:00+23sse248895 1.6 1017636
14:00+24sse248373 2.8 1014668
17:00+22sse239487 2.1 1014118
20:00+20se119599 3.6 101548
10 may, mon
mon1023:00+20se1297100 0.3 101770
02:00+20sse119899 0.3 101571
05:00+19s119879 0.0 101561
08:00+21sse229436 0.0 1016260
11:00+27se25537 0.0 10151348
14:00+29ese254735 0.0 10121879
17:00+24e248491 0.4 1012288
20:00+20se239829 1.9 1015114
11 may, tue
tue1123:00+20sse119835 0.2 101680
02:00+19s119721 0.2 101559
05:00+19sse129836 0.0 101585
08:00+21sse129240 0.1 1016337
11:00+24ese237761 0.5 1016888
14:00+26e336635 1.1 10131119
17:00+25ene337113 0.3 1012744
20:00+21e139863 0.9 1015180
12 may, wed
wed1223:00+20se129853 0.3 1016111
02:00+20sse119868 0.3 101576
05:00+20sse129769 0.1 101586
08:00+22sse239145 0.1 1016337
11:00+25ese238155 0.7 1016764
14:00+25e238596 3.6 1014653
17:00+24e228499 1.6 1012508
20:00+21ese239873 1.8 1014200
13 may, thu
thu1323:00+20se129974 0.3 1016116
02:00+20s129893 0.4 101577
05:00+19s2298100 0.1 101570
08:00+22sse239112 0.1 1016228
11:00+27se2354100 0.0 10151291
14:00+29ese2347100 0.0 10131745
17:00+25ene2368100 0.0 1012308
20:00+20ese129595 0.0 101471